Location: Stendal
(52.5994°N, 11.8400°E)
Time: 08:26:37
(UTC+02:00)

ISS - Visible Passes

Search period start: 15 May 2021 00:00
Search period end: 25 May 2021 00:00
Orbit: 417 x 422 km, 51.6° (Epoch: 14 May)

Date Brightness Start Highest point End Pass type
(mag) Time Alt. Az. Time Alt. Az. Time Alt. Az.
15 May -3.9 00:27:58 10° WSW 00:31:19 65° SSE 00:34:41 10° E visible
15 May -3.9 02:04:41 10° W 02:08:04 71° S 02:11:26 10° ESE visible
15 May -3.0 03:41:35 10° W 03:44:36 31° SSW 03:47:37 10° SE visible
15 May -2.3 22:05:13 10° S 22:07:35 18° SE 22:09:57 10° E visible
15 May -3.7 23:40:37 10° WSW 23:43:55 54° SSE 23:47:13 10° E visible
16 May -3.9 01:17:15 10° W 01:20:37 76° S 01:24:00 10° E visible
16 May -3.4 02:54:04 10° W 02:57:15 40° SSW 03:00:27 10° SE visible
16 May -1.8 04:32:10 10° WSW 04:33:24 12° SW 04:34:38 10° SSW visible
16 May -3.4 22:53:19 10° SW 22:56:31 43° SSE 22:59:44 10° E visible
17 May -3.9 00:29:48 10° W 00:33:10 77° S 00:36:34 10° E visible
17 May -3.7 02:06:35 10° W 02:09:53 51° SSW 02:13:10 10° ESE visible
17 May -2.2 03:43:57 10° WSW 03:46:10 17° SW 03:48:24 10° S visible
17 May -3.0 22:06:06 10° SW 22:09:10 33° SSE 22:12:14 10° E visible
17 May -3.9 23:42:22 10° WSW 23:45:44 73° S 23:49:06 10° E visible
18 May -3.8 01:19:07 10° W 01:22:28 62° SSW 01:22:53 55° SSE visible
18 May -3.8 22:54:57 10° WSW 22:58:17 65° SSE 23:01:39 10° E visible
19 May -3.9 00:31:40 10° W 00:35:02 71° S 00:36:26 32° ESE visible
19 May -1.6 02:08:33 10° W 02:09:22 15° W 02:09:22 15° W visible
19 May -3.6 22:07:34 10° WSW 22:10:52 54° SSE 22:14:10 10° E visible
19 May -3.9 23:44:12 10° W 23:47:34 76° S 23:50:15 15° E visible
20 May -2.7 01:21:01 10° W 01:23:10 30° WSW 01:23:10 30° WSW visible
20 May -3.9 22:56:45 10° W 23:00:07 77° S 23:03:30 10° E visible
21 May -3.6 00:33:31 10° W 00:36:49 51° SSW 00:37:05 49° S visible
21 May -3.8 22:09:17 10° WSW 22:12:39 73° S 22:16:02 10° E visible
21 May -3.8 23:46:02 10° W 23:49:23 62° SSW 23:51:01 27° ESE visible
22 May -1.6 01:23:06 10° W 01:23:57 15° WSW 01:23:57 15° WSW visible
22 May -3.8 22:58:34 10° W 23:01:56 71° S 23:05:00 12° ESE visible
23 May -2.6 00:35:28 10° W 00:37:56 29° SW 00:37:56 29° SW visible
23 May -3.8 22:11:05 10° W 22:14:28 76° S 22:17:50 10° E visible
23 May -3.2 23:47:54 10° W 23:51:06 40° SSW 23:51:56 33° SSE visible
24 May -3.5 23:00:24 10° W 23:03:41 51° SSW 23:05:58 18° SE visible
